Find Starlink 32680

NORAD ID: 62423 Int'l Des: 2024-249 Owner: SPXS Country: US Constellation: starlink operational
LEOCIRCULAR

当前视图

正在加载3D地球...

About Starlink 32680

Starlink 32680 (NORAD 62423) is a starlink constellation satellite (v2 mini) launched Dec 23, 2024 by SPXS of US. It operates in LEO, CIRCULAR orbit with a mass of 730.00 kg.

关于 Starlink 32680

正在加载描述...

即将过境

Passes for default location (London). Set your location on the main map for personalized predictions.

高度历史

Loading altitude history...

两行轨道根数

1 62423U 24249Q 26169.20140392 .00018374 00000-0 67518-3 0 9996
2 62423 43.0018 106.6109 0001808 265.7293 94.3352 15.27598553 83185
Epoch: Jun 18, 2026 • Age: 11 hours

当前状态

高度 495.0 km
速度 7.62 km/s
星下点 -43.12°S, 121.42°W
发射日期 Dec 23, 2024
运行时间 1.4 years
类型 internet

技术详情

分类 Payload
质量 730.00 kg
干质量 700.00 kg
总质量 730.00 kg
长度 0.30 m
直径 4.10 m
跨度 29.00 m
形状 Box + pan
制造商 SPXS
平台类型 Starlink V2M
阶段状态 In Orbit
所有者/国家 SPXS/US

Most Searched